Regional Weather Roundup
Issued by NWS Newport/Morehead, NC

Current Version | Previous Version | Graphics & Text | Print | Product List | Glossary Off
Versions: 1 2 3 4 5 6 7 8 9 10 11 12 13 14 15 16 17 18 19 20 21 22 23 24 25 26 27 28 29 30 31 32 33 34 35 36 37 38 39 40 41 42 43 44 45 46 47 48 49 50

000
ASUS42 KMHX 210713
RWRMHX
WEATHER ROUNDUP FOR EASTERN NORTH CAROLINA
NATIONAL WEATHER SERVICE NEWPORT/MOREHEAD CITY NC
200 AM EST SAT JAN 21 2017

NOTE: "FAIR" INDICATES FEW OR NO CLOUDS BELOW 12,000 FEET
WITH NO SIGNIFICANT WEATHER AND/OR OBSTRUCTIONS TO VISIBILITY

NCZ015>017-031-032-045>047-102-103-210800-
NORTH COAST

CITY           SKY/WX    TMP DP  RH WIND       PRES   REMARKS
EDENTON        CLOUDY    51  49  93 CALM      29.94R FOG
ELIZABETH CITY CLOUDY    48  48 100 N5        29.93S FOG
KITTY HAWK     NOT AVBL
MANTEO         CLOUDY    47  47 100 N6        29.93R FOG

$$

NCZ045>047-081-094-103-104-210800-
CENTRAL COAST

CITY           SKY/WX    TMP DP  RH WIND       PRES   REMARKS
FRISCO         FOG       52  50  93 VRB5      29.91S VSB 1/4

$$

NCZ095-097-098-100-101-210800-
SOUTHERN COAST

CITY           SKY/WX    TMP DP  RH WIND       PRES   REMARKS
BEAUFORT       PTCLDY    50  49  96 N3        29.91R
CEDAR ISLAND   NOT AVBL
JACKSONVILLE   FOG       52  52 100 N5        29.92R VSB 1/4
PINEY ISLAND   FOG      N/A N/A N/A N7        29.91R VSB 1/4
WILMINGTON     FOG       50  50 100 NE6       29.92R VSB 1/4


$$

NCZ011>013-027>030-043-044-078>080-089-090>093-098-210800-
COASTAL PLAIN

CITY           SKY/WX    TMP DP  RH WIND       PRES   REMARKS
AHOSKIE        FOG       47  47  98 CALM      29.94R VSB 3/4
CLINTON        PTCLDY    52  52 100 CALM      29.92S FOG
ELIZABETHTOWN  PTCLDY    56  56 100 CALM      29.91S FOG
GOLDSBORO      FOG       52  52 100 NE6       29.91R VSB 1/2
GREENVILLE     CLOUDY    50  50 100 NE3       29.95R FOG
HAVELOCK       FOG       50  49  96 N7        29.93R VSB 1
KENANSVILLE    FOG       50  50 100 CALM      29.92S VSB 1/4
KINSTON        FOG       52  52 100 NE5       29.93S VSB 1/2
NEW BERN       FOG       50  50 100 N5        29.93R VSB 1/2
RICHLANDS      FOG       51  51 100 NE5       29.93R VSB 1/4
ROCKY MOUNT    FOG       50  50 100 CALM      29.93R VSB 3/4
WASHINGTON     FOG       50  49  99 N5          N/A  VSB 3/4
WHITEVILLE     PTCLDY    54  52  95 CALM      29.91R

$$

AMZ130-135-150-152-154-156-158-170-250-252-270-ANZ085-086-088-633-658-670-210800-
MARINE OBSERVATIONS

STATION/POSITION TIME  TEMP    WIND        PRES    WAVE   SWELL
                       AIR SEA DIR/SP/G            HT/PER HT/PER
                 (UTC) (F)     (DEG/KT/KT) (MB)    (FT/S) (FT/S)
CHESAPEAKE LIGHT NOT AVBL
64 E VA BEACH    0650   55 58  350/ 10/ 12 1012.2    5/12   5/12
DUCK             0648   48 45  340/  6/  6 1012.8
2 E DUCK         0630      45                N/A     4/12   2/12
OREGON INLET     0642   49 49  330/  5/  7 1013.0
13E OREGON INLT  NOT AVBL
HATTERAS CG      0648   51 55  340/ 12/ 14 1012.3
DIAMOND BUOY     0650   60 75  350/ 16/ 19 1012.0    5/11   3/11
CAPE LOOKOUT     0700   52      10/  6/  8 1012.4
BEAUFORT LAB     0648   52 51   10/  5/  7 1011.7
30 SE NEW RVR IN 0608   59 62   20/  8/ 12 1012.4
30 SE NEW RVR IN 0643      62                N/A     4/13   2/13
27 SE WRIGHTSVLE 0608   66 72  270/ 10/ 12 1011.9
5 SE WRIGHTSVLE  0608   55     240/  4/  6 1012.3
225 S CAPE HAT   0650   72 70  250/ 14/ 17 1012.6    6/12   5/12
41 SE CHARLESTON 0650   70 68  210/ 10/ 12 1012.6    2/14   2/14

$$




USA.gov is the U.S. government's official web portal to all federal, state and local government web resources and services.